Miscellaneous Local Product
Issued by NWS Hastings, NE

Home | Current Version | Previous Version | Graphics & Text | Print | Product List | Glossary On
Versions: 1 2 3 4 5 6 7 8 9 10 11 12 13 14 15 16 17 18 19 20 21 22 23 24 25 26 27 28 29 30 31 32 33 34 35 36 37 38 39 40 41 42 43 44 45 46 47 48 49 50
000
AXUS43 KGID 230802
MISGRI

GID CWA HOURLY WEATHER ROUNDUP
NATIONAL WEATHER SERVICE HASTINGS NE
300 AM CDT SAT MAY 23 2015

NOTE: "FAIR" INDICATES FEW OR NO CLOUDS BELOW 12,000 FEET WITH NO
SIGNIFICANT WEATHER AND/OR OBSTRUCTIONS TO VISIBILITY.

...SOUTH CENTRAL NEBRASKA...

CITY           SKY/WX    TMP DP  RH WIND       PRES   REMARKS
GRAND ISLAND   CLOUDY    53  49  86 SE8       30.15S
HASTINGS       CLOUDY    54  50  86 S9        30.14S
KEARNEY        CLOUDY    52  48  87 S15       30.14R
ORD            CLOUDY    52  50  93 SE9       30.12F
YORK           CLOUDY    55  48  76 S10       30.17S
AURORA         CLOUDY    53  48  81 SE8       30.15F
LEXINGTON      CLOUDY    55  54  97 SE10G18   30.11S FOG
HOLDREGE       CLOUDY    53  51  95 SE12      30.12S FOG
HEBRON         CLOUDY    56  47  70 S9        30.17S

...NEBRASKA PANHANDLE...

CITY           SKY/WX    TMP DP  RH WIND       PRES   REMARKS
CHADRON        CLOUDY    48  44  86 CALM      30.06S
ALLIANCE       CLOUDY    46  45  96 SE10      30.06S FOG
SCOTTSBLUFF    CLOUDY    46  45  96 E10       30.06F FOG
SIDNEY         FOG       46  46 100 NE6       30.05F VSB 1/2

...WESTERN AND NORTH CENTRAL NEBRASKA...

CITY           SKY/WX    TMP DP  RH WIND       PRES   REMARKS
VALENTINE      LGT RAIN  48  47  96 E6        30.11F
AINSWORTH      DRIZZLE   49  49  99 E8        30.11F
ONEILL         CLOUDY    52  50  93 E6        30.15F
BROKEN BOW     CLOUDY    53  52  96 SE13G22   30.10S FOG
IMPERIAL       RAIN      52  51  97 SE15      30.07R
NORTH PLATTE   CLOUDY    52  51  97 SE8       30.08S
MCCOOK         CLOUDY    54  53  97 SE10      30.08S FOG

...EASTERN NEBRASKA...

CITY           SKY/WX    TMP DP  RH WIND       PRES   REMARKS
NORFOLK        CLOUDY    55  50  83 SE6       30.17S
SO SIOUX CITY  CLOUDY    57  49  74 SE3       30.20R
TEKAMAH        CLOUDY    57  52  83 E5        30.19S
COLUMBUS       CLOUDY    55  43  62 S8        30.20S
ALBION         CLOUDY    53  47  79 SE7       30.16S
OMAHA EPPLEY   CLOUDY    59  50  72 SE7       30.20R
OFFUTT AFB     CLOUDY    58  50  75 SE6       30.19S
MILLARD        CLOUDY    59  51  73 SE3       30.19S
LINCOLN        CLOUDY    57  48  72 S7        30.20R
NEBRASKA CITY  CLOUDY    56  48  76 SE3       30.19S
BEATRICE       CLOUDY    56  49  76 CALM      30.18R
FALLS CITY     CLOUDY    56  51  84 SE3       30.19R

...NORTHERN KANSAS...

CITY           SKY/WX    TMP DP  RH WIND       PRES   REMARKS
GOODLAND       CLOUDY    53  53 100 SE20      30.02F FOG
HILL CITY      CLOUDY    55  53  93 S13       30.10F
NORTON         CLOUDY    54  50  87 SE14      30.08F
PHILLIPSBURG   LGT RAIN  57  57 100 SE8       30.12F
SMITH CENTER   CLOUDY    52  52 100 SE9       30.13F
HAYS           CLOUDY    54  46  76 SE13      30.11F
RUSSELL        LGT RAIN  54  54 100 S14       30.11F
CONCORDIA      CLOUDY    54  51  90 SE8       30.16F
SALINA         CLOUDY    55  53  93 SE7       30.16F
TOPEKA         CLOUDY    60  53  77 SE7       30.18S



USA.gov is the U.S. government's official web portal to all federal, state and local government web resources and services.